Location: T�chigga el Be�da
(16.4766°N, 9.3887°W)
Time: 07:43:24
(UTC+00:00)

HJ-1C - Pass Details

Date: 27 February 2020
Orbit: 435 x 445 km, 97.2° (Epoch: 08 April)

Event Time Altitude Azimuth Distance (km) Brightness Sun altitude
Rises 20:06:13 0° 174° (S) 2,405 7.1 -20.5°
Reaches altitude 10° 20:08:15 10° 177° (S) 1,536 6.1 -20.9°
Maximum altitude 20:11:30 66° 259° (W) 477 3.6 -21.7°
Drops below altitude 10° 20:14:46 10° 343° (NNW) 1,536 6.3 -22.5°
Sets 20:16:48 0° 346° (NNW) 2,404 7.2 -23.0°
